Flag for U.S.A. Weather past 2 weeks in Provincetown, Massachusetts, U.S.A.

Now
36 °F

Overcast.


Feels Like: 28 °F
Forecast: 29 / 38 °F
Wind: 10 mph from Southeast

Location: Provincetown Weather Reporting Station

Current Time: Jan 30, 2015 at 6:44:53 AM

Latest Report: Jan 30, 2015 at 5:55 AM


Visibility: 10 mi

Pressure: 29.88 "Hg

Humidity: 81%

Dew point: 30 °F

Location of ProvincetownLocation

Historic Weather in Provincetown — Graph

°F

Provincetown temperature yesterday

Maximum temperature yesterday: 34 °F (at 9:15 AM)
Minimum temperature yesterday: 19 °F (at 7:35 PM)
Average temperature yesterday: 27 °F

Past Weeks' High & Low Weather Summary

 TemperatureHumidityPressure
High50 °F (Jan 18, 1:35 PM)100% (Jan 15, 7:35 AM)30.39 "Hg (Jan 15, 7:35 AM)
Low16 °F (Jan 17, 3:15 AM)36% (Jan 16, 7:55 PM)29.08 "Hg (Jan 24, 4:55 PM)
Average32 °F69%29.93 "Hg
* Reported Jan 15 5:15 AM — Jan 30 5:35 AM, Provincetown, Weather by CustomWeather, © 2014

Note: Actual official high and low records may vary slightly from our data, if they occured in-between our weather recording intervals... More about our weather records

Advertising

Provincetown weather history for previous 24 hours

 ConditionsComfort  
Time TempWeatherWind HumidityBarometerVisibility
5:35 AM
Jan 30
36 °FMostly cloudy.10 mph75%29.89 "Hg10 mi
5:15 AM36 °FOvercast.8 mph75%29.90 "Hg10 mi
4:55 AM34 °FOvercast.8 mph87%29.90 "Hg10 mi
4:35 AM34 °FOvercast.9 mph87%29.92 "Hg10 mi
4:15 AM34 °FOvercast.8 mph81%29.93 "Hg10 mi
3:55 AM34 °FOvercast.9 mph81%29.94 "Hg10 mi
3:35 AM34 °FOvercast.8 mph81%29.95 "Hg10 mi
3:15 AM32 °FOvercast.9 mph87%29.96 "Hg10 mi
2:55 AM32 °FOvercast.7 mph87%29.98 "Hg10 mi
2:35 AM30 °FOvercast.7 mph93%30.00 "Hg10 mi
2:15 AM30 °FOvercast.6 mph93%30.00 "Hg10 mi
1:55 AM30 °FPartly cloudy.6 mph93%30.01 "Hg7 mi
1:35 AM30 °FMostly cloudy.6 mph86%30.02 "Hg5 mi
1:15 AM32 °FPassing clouds.7 mph75%30.04 "Hg10 mi
12:55 AM30 °FPassing clouds.5 mph80%30.04 "Hg10 mi
12:35 AM30 °FPassing clouds.6 mph80%30.05 "Hg10 mi
12:15 AM32 °FPassing clouds.6 mph75%30.06 "Hg10 mi
11:55 PM
Jan 29
32 °FPassing clouds.8 mph75%30.08 "Hg10 mi
11:35 PM32 °FPassing clouds.12 mph75%30.10 "Hg10 mi
11:15 PM30 °FPassing clouds.8 mph80%30.10 "Hg10 mi
10:35 PM30 °FClear.6 mph80%30.11 "Hg10 mi
10:15 PM28 °FPassing clouds.5 mph74%30.10 "Hg10 mi
9:55 PM27 °FPassing clouds.5 mph74%30.10 "Hg10 mi
9:35 PM21 °FPassing clouds.3 mph93%30.12 "Hg10 mi
9:15 PM21 °FClear.3 mph93%30.12 "Hg10 mi
8:55 PM21 °FClear.3 mph80%30.13 "Hg10 mi
8:35 PM21 °FClear.3 mph86%30.14 "Hg10 mi
8:15 PM19 °FClear.No wind93%30.15 "Hg10 mi
7:55 PM19 °FClear.3 mph93%30.16 "Hg10 mi
7:35 PM19 °FClear.No wind79%30.16 "Hg10 mi
7:15 PM21 °FClear.No wind80%30.16 "Hg10 mi
6:55 PM21 °FClear.No wind80%30.17 "Hg10 mi
6:35 PM21 °FClear.No wind86%30.17 "Hg10 mi
6:15 PM23 °FClear.No wind86%30.17 "Hg10 mi
5:55 PM25 °FClear.No wind80%30.18 "Hg10 mi
5:35 PM27 °FClear.No wind74%30.18 "Hg10 mi
9:55 AM34 °FSunny.8 mph56%30.30 "Hg10 mi
9:35 AM34 °FSunny.9 mph51%30.30 "Hg10 mi
9:15 AM34 °FSunny.9 mph51%30.30 "Hg10 mi
8:55 AM32 °FSunny.8 mph51%30.30 "Hg10 mi
8:35 AM32 °FSunny.8 mph55%30.29 "Hg10 mi
8:15 AM30 °FSunny.8 mph55%30.29 "Hg10 mi
7:55 AM30 °FSunny.10 mph59%30.28 "Hg10 mi
7:35 AM30 °FSunny.9 mph55%30.28 "Hg10 mi
7:15 AM28 °FSunny.9 mph59%30.27 "Hg10 mi
6:55 AM28 °FClear.10 mph64%30.27 "Hg10 mi
6:35 AM28 °FClear.12 mph59%30.26 "Hg10 mi
6:15 AM28 °FClear.12 mph59%30.26 "Hg10 mi
Weather by CustomWeather, © 2014

See weather overviewHow to use our weather pages